YMLT Airport Information

Runway Information
Runway 14L Length 2297 ft width 60 ft
Elevation 535 ft Threshold 0 ft Heading 147
Runway 32R Length 2297 ft Width 60 ft
Elevation 545 ft Threshold 0 ft Heading 327
Runway 14R Length 6499 ft width 148 ft
Elevation 560 ft Threshold 0 ft Heading 146
Runway 32L Length 6499 ft Width 148 ft
Elevation 548 ft Threshold 0 ft Heading 326
Runway 18 Length 2264 ft width 60 ft
Elevation 0 ft Threshold 0 ft Heading 196
Runway 36 Length 2264 ft Width 60 ft
Elevation 0 ft Threshold 0 ft Heading 16
Airport Frequencies
Type ATIS Name ATIS Frequency 112.6 MHZ
Type CTAF Name CTAF Frequency 118.7 MHZ
Type FSS Name MELBOURNE Frequency 126.5 MHZ
Type TWR Name TWR Frequency 118.7 MHZ
Airport Navaids
Type VOR-DME Name Launceston Frequency 112600 KHZ
Type NDB Name Launceston Frequency 242 KHZ
Type NDB Name Nile Frequency 230 KHZ
Airport Weather Information & NOTAM
ADDS - METARS form results

(0843 UTC 20 April 2018)
 
METAR text: YMLT 200830Z AUTO 22003KT 9999 // NCD 12/07 Q1022 RF00.0/000.0
Conditions at: YMLT (LAUNCESTON AIRPO, AU) observed 0830 UTC 20 April 2018
Temperature: 12.0°C (54°F)
Dewpoint: 7.0°C (45°F) [RH = 71%]
Pressure (altimeter): 30.18 inches Hg (1022.0 mb)
Winds: from the SW (220 degrees) at 3 MPH (3 knots; 1.6 m/s)
Visibility: 6 or more miles (10+ km)
Ceiling: at least 12,000 feet AGL
Clouds: sky clear below 12,000 feet AGL
Weather: no significant weather observed at this time

METAR text: YMLT 200800Z AUTO 26003KT 9999 // NCD 13/08 Q1022 RF00.0/000.0
Conditions at: YMLT (LAUNCESTON AIRPO, AU) observed 0800 UTC 20 April 2018
Temperature: 13.0°C (55°F)
Dewpoint: 8.0°C (46°F) [RH = 72%]
Pressure (altimeter): 30.18 inches Hg (1022.0 mb)
Winds: from the W (260 degrees) at 3 MPH (3 knots; 1.6 m/s)
Visibility: 6 or more miles (10+ km)
Ceiling: at least 12,000 feet AGL
Clouds: sky clear below 12,000 feet AGL
Weather: no significant weather observed at this time